This is the latest recevied weather packets stored in our database for station/object CW79215. If no packets are shown the sender has not sent any weather packets the latest 10 day(s).
| Time | Temp. | Humidity | Pressure | Rain* | Wind** | Luminosity | Snow |
|---|---|---|---|---|---|---|---|
| 1788201332 | 16.67° C | 76% | 1030.1 hPa | - | - | - | - |
| 1788200432 | 16.67° C | 79% | 1029.8 hPa | - | - | - | - |
| 1788199532 | 17.22° C | 76% | 1029.7 hPa | - | - | - | - |
| 1788198631 | 16.67° C | 81% | 1029.6 hPa | - | - | - | - |
| 1788197731 | 16.67° C | 77% | 1029.7 hPa | - | - | - | - |
| 1788196831 | 18.33° C | 73% | 1029.9 hPa | - | - | - | - |
| 1788195931 | 17.22° C | 78% | 1029.9 hPa | - | - | - | - |
| 1788195031 | 17.78° C | 75% | 1029.8 hPa | - | - | - | - |
| 1788194131 | 19.44° C | 65% | 1030.1 hPa | - | - | - | - |
| 1788193231 | 22.22° C | 40% | 1028.8 hPa | - | - | - | - |
| 1788192331 | 22.78° C | 40% | 1028.4 hPa | - | - | - | - |
| 1788191431 | 22.78° C | 39% | 1028.2 hPa | - | - | - | - |
| 1788190531 | 23.33° C | 37% | 1028.1 hPa | - | - | - | - |
| 1788189631 | 23.89° C | 37% | 1028.2 hPa | - | - | - | - |
| 1788188730 | 23.89° C | 37% | 1028 hPa | - | - | - | - |
| 1788187830 | 23.33° C | 37% | 1027.9 hPa | - | - | - | - |
| 1788186932 | 23.89° C | 38% | 1027.9 hPa | - | - | - | - |
| 1788186032 | 23.89° C | 37% | 1027.9 hPa | - | - | - | - |
| 1788185132 | 24.44° C | 40% | 1027.8 hPa | - | - | - | - |
| 1788184231 | 23.33° C | 42% | 1027.9 hPa | - | - | - | - |
| 1788183331 | 23.33° C | 42% | 1027.9 hPa | - | - | - | - |
| 1788182431 | 23.33° C | 43% | 1028.1 hPa | - | - | - | - |
| 1788181531 | 22.78° C | 43% | 1028.2 hPa | - | - | - | - |
| 1788180631 | 23.89° C | 41% | 1028.2 hPa | - | - | - | - |
| 1788179731 | 25° C | 39% | 1028.2 hPa | - | - | - | - |
* Rain since midnight (hover to see other rain measurements)
** Current wind speed in m/s (hover to see current wind gust speed)